Location: New Town
(33.2710°N, 90.7534°W)
Time: 13:31:12
(UTC+00:00)

Explorer 11/Cluster Stage 4 - Pass Details

Date: 15 May 2021
Orbit: 467 x 1257 km, 28.8° (Epoch: 14 June)

Event Time Altitude Azimuth Distance (km) Brightness Sun altitude
Rises 01:32:28 0° 242° (WSW) 3,993 10.7 -7.8°
Reaches altitude 10° 01:35:17 10° 237° (WSW) 3,107 10.0 -8.3°
Maximum altitude 01:42:54 50° 164° (SSE) 1,549 7.8 -9.7°
Drops below altitude 10° 01:50:44 10° 93° (E) 3,195 9.2 -11.1°
Enters shadow 01:51:12 - 92° (E) 3,340 9.3 -11.1°
Sets 01:53:40 0° 88° (E) 4,114 - -11.6°
